• în România
  • Lista ţărilor
  • Pe 7 zile
  • Temperatura apei
  • Hartă satelitară
  • Meteo pe hartă
  • Widget-uri
  • user-avatar
    Intrare

    Meteo pe oră la Ganja

    Astăzi, 18 Noiembrie, Sâmbătă

    Timp Temperatura Precipitaţii Vânt Presiune Umiditate
    00:00 +10°C° 0 mm 2 m/s 731 mmHg 90%
    01:00 +10°C° 0 mm 2 m/s 731 mmHg 90%
    02:00 +10°C° 0 mm 2 m/s 731 mmHg 90%
    03:00 +11°C° 0 mm 1 m/s 731 mmHg 91%
    04:00 +11°C° 0,1 mm 1 m/s 731 mmHg 89%
    05:00 +11°C° 0,1 mm 1 m/s 731 mmHg 88%
    06:00 +11°C° 0,1 mm 1 m/s 731 mmHg 87%
    07:00 +11°C° 0,1 mm 1 m/s 731 mmHg 84%
    08:00 +11°C° 0,1 mm 1 m/s 731 mmHg 81%
    09:00 +12°C° 0 mm 1 m/s 731 mmHg 78%
    10:00 +12°C° 0 mm 1 m/s 730 mmHg 76%
    11:00 +12°C° 0 mm 1 m/s 730 mmHg 75%
    12:00 +13°C° 0 mm 1 m/s 730 mmHg 73%
    13:00 +13°C° 0 mm 1 m/s 729 mmHg 72%
    14:00 +13°C° 0 mm 1 m/s 729 mmHg 72%
    15:00 +13°C° 0 mm 1 m/s 729 mmHg 71%
    16:00 +13°C° 0 mm 1 m/s 729 mmHg 74%
    17:00 +12°C° 0 mm 1 m/s 729 mmHg 78%
    18:00 +11°C° 0 mm 1 m/s 729 mmHg 81%
    19:00 +11°C° 0 mm 1 m/s 729 mmHg 80%
    20:00 +11°C° 0 mm 1 m/s 729 mmHg 79%
    21:00 +10°C° 0 mm 1 m/s 729 mmHg 78%
    22:00 +10°C° 0 mm 1 m/s 729 mmHg 76%
    23:00 +10°C° 0 mm 1 m/s 729 mmHg 74%

    Mâine, 19 Noiembrie, Duminică

    Timp Temperatura Precipitaţii Vânt Presiune Umiditate
    00:00 +10°C° 0 mm 1 m/s 728 mmHg 72%
    01:00 +10°C° 0 mm 1 m/s 728 mmHg 70%
    02:00 +9°C° 0 mm 2 m/s 728 mmHg 69%
    03:00 +9°C° 0 mm 2 m/s 728 mmHg 67%
    04:00 +9°C° 0 mm 2 m/s 728 mmHg 66%
    05:00 +9°C° 0 mm 2 m/s 728 mmHg 64%
    06:00 +9°C° 0 mm 2 m/s 727 mmHg 63%
    07:00 +10°C° 0 mm 2 m/s 727 mmHg 58%
    08:00 +12°C° 0 mm 2 m/s 727 mmHg 53%
    09:00 +14°C° 0 mm 1 m/s 727 mmHg 49%
    10:00 +15°C° 0 mm 1 m/s 727 mmHg 45%
    11:00 +16°C° 0 mm 2 m/s 726 mmHg 42%
    12:00 +17°C° 0 mm 2 m/s 726 mmHg 39%
    13:00 +18°C° 0 mm 1 m/s 726 mmHg 39%
    14:00 +18°C° 0 mm 1 m/s 725 mmHg 39%
    15:00 +18°C° 0 mm 1 m/s 725 mmHg 38%
    16:00 +16°C° 0 mm 1 m/s 725 mmHg 42%
    17:00 +15°C° 0 mm 1 m/s 725 mmHg 46%
    18:00 +14°C° 0 mm 1 m/s 725 mmHg 50%
    19:00 +13°C° 0 mm 1 m/s 725 mmHg 50%
    20:00 +13°C° 0 mm 1 m/s 725 mmHg 50%
    21:00 +13°C° 0 mm 1 m/s 725 mmHg 49%
    22:00 +13°C° 0 mm 1 m/s 724 mmHg 49%
    23:00 +13°C° 0 mm 2 m/s 724 mmHg 48%

    Poimâine, 20 Noiembrie, Luni

    Timp Temperatura Precipitaţii Vânt Presiune Umiditate
    00:00 +13°C° 0 mm 2 m/s 724 mmHg 47%
    01:00 +13°C° 0 mm 2 m/s 724 mmHg 46%
    02:00 +13°C° 0 mm 2 m/s 724 mmHg 45%
    03:00 +11°C° 0 mm 3 m/s 724 mmHg 44%
    04:00 +11°C° 0 mm 3 m/s 724 mmHg 44%
    05:00 +11°C° 0 mm 3 m/s 724 mmHg 44%
    06:00 +11°C° 0 mm 3 m/s 724 mmHg 44%
    07:00 +12°C° 0 mm 3 m/s 724 mmHg 42%
    08:00 +13°C° 0 mm 3 m/s 724 mmHg 40%
    09:00 +16°C° 0 mm 3 m/s 724 mmHg 38%
    10:00 +17°C° 0 mm 3 m/s 724 mmHg 37%
    11:00 +18°C° 0 mm 3 m/s 724 mmHg 35%
    12:00 +19°C° 0 mm 3 m/s 723 mmHg 33%
    13:00 +19°C° 0 mm 3 m/s 723 mmHg 33%
    14:00 +19°C° 0 mm 2 m/s 723 mmHg 34%
    15:00 +19°C° 0 mm 2 m/s 723 mmHg 34%
    16:00 +18°C° 0 mm 2 m/s 723 mmHg 38%
    17:00 +16°C° 0 mm 2 m/s 723 mmHg 41%
    18:00 +15°C° 0 mm 2 m/s 723 mmHg 44%
    19:00 +15°C° 0 mm 2 m/s 722 mmHg 45%
    20:00 +14°C° 0 mm 2 m/s 722 mmHg 45%
    21:00 +14°C° 0 mm 2 m/s 722 mmHg 45%
    22:00 +14°C° 0 mm 2 m/s 722 mmHg 45%
    23:00 +13°C° 0 mm 2 m/s 722 mmHg 46%

    21 Noiembrie, Marţi

    Timp Temperatura Precipitaţii Vânt Presiune Umiditate
    00:00 +13°C° 0 mm 2 m/s 722 mmHg 46%
    01:00 +13°C° 0 mm 2 m/s 722 mmHg 46%
    02:00 +13°C° 0 mm 2 m/s 721 mmHg 47%
    03:00 +13°C° 0 mm 2 m/s 721 mmHg 48%
    04:00 +12°C° 0 mm 2 m/s 721 mmHg 48%
    05:00 +12°C° 0 mm 2 m/s 721 mmHg 49%
    06:00 +12°C° 0 mm 2 m/s 721 mmHg 50%
    07:00 +13°C° 0 mm 2 m/s 721 mmHg 48%
    08:00 +14°C° 0 mm 2 m/s 720 mmHg 45%
    09:00 +15°C° 0 mm 2 m/s 720 mmHg 43%
    10:00 +16°C° 0 mm 2 m/s 720 mmHg 40%
    11:00 +17°C° 0 mm 2 m/s 719 mmHg 38%
    12:00 +18°C° 0 mm 3 m/s 719 mmHg 35%
    13:00 +18°C° 0 mm 2 m/s 718 mmHg 36%
    14:00 +18°C° 0 mm 2 m/s 718 mmHg 37%
    15:00 +18°C° 0 mm 2 m/s 718 mmHg 38%
    16:00 +17°C° 0 mm 2 m/s 718 mmHg 42%
    17:00 +16°C° 0 mm 2 m/s 718 mmHg 45%
    18:00 +15°C° 0 mm 2 m/s 718 mmHg 48%
    19:00 +14°C° 0 mm 2 m/s 718 mmHg 49%
    20:00 +14°C° 0 mm 2 m/s 718 mmHg 49%
    21:00 +13°C° 0 mm 2 m/s 718 mmHg 50%
    22:00 +13°C° 0 mm 2 m/s 718 mmHg 50%
    23:00 +13°C° 0 mm 2 m/s 718 mmHg 50%

    22 Noiembrie, Miercuri

    Timp Temperatura Precipitaţii Vânt Presiune Umiditate
    00:00 +12°C° 0 mm 3 m/s 717 mmHg 50%
    01:00 +13°C° 0 mm 2 m/s 717 mmHg 49%
    02:00 +13°C° 0 mm 2 m/s 717 mmHg 49%
    03:00 +13°C° 0 mm 2 m/s 717 mmHg 48%
    04:00 +12°C° 0 mm 2 m/s 716 mmHg 49%
    05:00 +12°C° 0 mm 2 m/s 716 mmHg 49%
    06:00 +12°C° 0 mm 2 m/s 716 mmHg 49%
    07:00 +11°C° 0 mm 3 m/s 716 mmHg 49%
    08:00 +12°C° 0 mm 3 m/s 717 mmHg 49%
    09:00 +13°C° 0 mm 3 m/s 717 mmHg 48%
    10:00 +12°C° 0,1 mm 4 m/s 717 mmHg 51%
    11:00 +12°C° 0,1 mm 5 m/s 717 mmHg 53%
    12:00 +11°C° 0,1 mm 6 m/s 718 mmHg 55%
    13:00 +12°C° 0,4 mm 5 m/s 718 mmHg 59%
    14:00 +10°C° 0,4 mm 5 m/s 718 mmHg 64%
    15:00 +9°C° 0,4 mm 5 m/s 718 mmHg 68%
    16:00 +9°C° 1 mm 5 m/s 719 mmHg 69%
    17:00 +8°C° 1 mm 5 m/s 719 mmHg 70%
    18:00 +7°C° 1 mm 4 m/s 720 mmHg 72%
    19:00 +7°C° 0,6 mm 4 m/s 720 mmHg 71%
    20:00 +7°C° 0,6 mm 4 m/s 720 mmHg 70%
    21:00 +8°C° 0,6 mm 3 m/s 721 mmHg 68%
    22:00 +7°C° 0,1 mm 3 m/s 721 mmHg 66%
    23:00 +7°C° 0,1 mm 3 m/s 721 mmHg 64%

    23 Noiembrie, Joi

    Timp Temperatura Precipitaţii Vânt Presiune Umiditate
    00:00 +7°C° 0,1 mm 3 m/s 721 mmHg 62%
    01:00 +7°C° 0,1 mm 3 m/s 721 mmHg 62%
    02:00 +7°C° 0,1 mm 3 m/s 722 mmHg 62%
    03:00 +7°C° 0,1 mm 3 m/s 722 mmHg 62%
    04:00 +5°C° 0,1 mm 3 m/s 722 mmHg 64%
    05:00 +5°C° 0,1 mm 3 m/s 722 mmHg 65%
    06:00 +5°C° 0,1 mm 3 m/s 723 mmHg 67%
    07:00 +5°C° 0 mm 4 m/s 723 mmHg 65%
    08:00 +6°C° 0 mm 4 m/s 724 mmHg 63%
    09:00 +6°C° 0 mm 5 m/s 724 mmHg 61%
    10:00 +7°C° 0 mm 5 m/s 724 mmHg 59%
    11:00 +8°C° 0 mm 5 m/s 724 mmHg 57%
    12:00 +9°C° 0 mm 5 m/s 724 mmHg 54%
    13:00 +9°C° 0 mm 5 m/s 724 mmHg 53%
    14:00 +9°C° 0 mm 5 m/s 725 mmHg 52%
    15:00 +9°C° 0 mm 5 m/s 725 mmHg 50%
    16:00 +8°C° 0 mm 4 m/s 726 mmHg 52%
    17:00 +7°C° 0 mm 4 m/s 726 mmHg 53%
    18:00 +7°C° 0 mm 3 m/s 727 mmHg 54%
    19:00 +7°C° 0 mm 3 m/s 728 mmHg 55%
    20:00 +5°C° 0 mm 3 m/s 728 mmHg 57%
    21:00 +5°C° 0 mm 3 m/s 729 mmHg 58%
    22:00 +5°C° 0,1 mm 3 m/s 729 mmHg 59%
    23:00 +4°C° 0,1 mm 3 m/s 729 mmHg 61%
    Arată mai mult